This demonstration page uses our WeatherBlox Daily Observations layout. Learn more.

39.29038, -76.61219

Hourly Observations for July 31, 2017

Temp ( °F °C ) Dew Point ( °F °C ) Humidity (%) Winds ( mph kmh ) Pressure ( in mb ) Visibility ( mi km ) Precip ( " mm )
12:54 am 00:54 undefined 74 23.3 59 15 60 60 undefined N/A 30.06 1018 N/A 0 0
1:54 am 01:54 undefined 71 21.7 60 15.6 68 68 undefined N/A 30.06 1018 N/A 0 0
2:54 am 02:54 undefined 70 21.1 61 16.1 73 73 undefined N/A 30.06 1018 N/A 0 0
3:54 am 03:54 undefined 68 20 60 15.6 76 76 undefined N/A 30.06 1018 N/A 0 0
4:54 am 04:54 undefined 68 20 60 15.6 76 76 undefined N/A 30.06 1018 N/A 0 0
5:54 am 05:54 undefined 68 20 58 14.4 70 70 undefined N/A 30.06 1018 N/A 0 0
6:54 am 06:54 undefined 69 20.6 59 15 70 70 undefined N/A 30.09 1019 N/A 0 0
7:54 am 07:54 undefined 72 22.2 59 15 64 64 undefined N/A 30.12 1020 N/A 0 0
8:54 am 08:54 undefined 78 25.6 60 15.6 54 54 undefined N/A 30.12 1020 N/A 0 0
9:54 am 09:54 undefined 81 27.2 59 15 47 47 undefined N/A 30.06 1018 N/A 0 0
10:54 am 10:54 undefined 83 28.3 59 15 44 44 undefined N/A 30.12 1020 N/A 0.98 24.892
11:54 am 11:54 undefined 84 28.9 60 15.6 44 44 undefined N/A 30.09 1019 N/A 0 0
12:54 pm 12:54 undefined 86 30 63 17.2 46 46 undefined N/A 30.09 1019 N/A 0 0
1:54 pm 13:54 undefined 87 30.6 64 17.8 46 46 undefined N/A 30.06 1018 N/A 0 0
2:54 pm 14:54 undefined 87 30.6 64 17.8 46 46 undefined N/A 30.03 1017 N/A 0 0
3:54 pm 15:54 undefined 85 29.4 64 17.8 50 50 undefined N/A 30.03 1017 N/A 0 0
4:54 pm 16:54 undefined 87 30.6 65 18.3 48 48 undefined N/A 30.03 1017 N/A 0 0
5:54 pm 17:54 undefined 86 30 64 17.8 48 48 undefined N/A 30.03 1017 N/A 0 0
6:54 pm 18:54 undefined 85 29.4 63 17.2 48 48 undefined N/A 30.03 1017 N/A 0 0
7:54 pm 19:54 undefined 85 29.4 63 17.2 48 48 undefined N/A 30.03 1017 N/A 0 0
8:54 pm 20:54 undefined 83 28.3 65 18.3 55 55 undefined N/A 30.03 1017 N/A 0 0
9:54 pm 21:54 undefined 82 27.8 65 18.3 56 56 undefined N/A 30.06 1018 N/A 0 0
10:54 pm 22:54 undefined 81 27.2 65 18.3 58 58 undefined N/A 30.06 1018 N/A 0 0
11:54 pm 23:54 undefined 79 26.1 65 18.3 62 62 undefined N/A 30.03 1017 N/A 0 0

Powered by AerisWeather